Mammoth Lakes, CA

3:24 AM PST on February 10, 2016 (GMT -0800)
Mammoth Yosemite

Weather History for KMMH - August, 2013

Change the Weather History Date:

Wednesday, August 21, 2013

  Actual Average (KBIH) Record (KBIH)
Temperature  
Mean Temperature 62 °F 74 °F  
Max Temperature 77 °F 96 °F 104 °F (1950)
Min Temperature 46 °F 53 °F 41 °F (1968)
Degree Days  
Heating Degree Days 4 0  
Month to date heating degree days 0  
Since 1 June heating degree days 20  
Since 1 July heating degree days 1  
Cooling Degree Days 0 9  
Month to date cooling degree days 230  
Year to date cooling degree days 894  
Since 1 June cooling degree days 826  
Growing Degree Days 12 (Base 50)    
Moisture  
Dew Point 47 °F    
Average Humidity 69    
Maximum Humidity 93    
Minimum Humidity 32    
Precipitation  
Precipitation 0.07 in 0.01 in 0.42 in (1984)
Month to date precipitation 0.09  
Year to date precipitation 3.32  
Snow  
Snow 0.00 in 0.00 in - ()
Month to date snowfall 0.0  
Since 1 June snowfall 0.0  
Since 1 July snowfall 0.0  
Snow Depth -    
Sea Level Pressure  
Sea Level Pressure 30.29 in    
Wind  
Wind Speed 4 mph (NW)    
Max Wind Speed 15 mph    
Max Gust Speed 20 mph    
Visibility 10 miles    
Events Rain    
T = Trace of Precipitation, MM = Missing Value Source: NWS Daily Summary

Daily Weather History Graph

Daily Weather History Graph

Search for Another Location

Airport or City:

Trip Planner

Search our weather history database for the weather conditions in past years. The results will help you decide how hot, cold, wet, or windy it might be!

Date:

Astronomy

Aug. 21, 2013 Rise Set
Actual Time 6:16 AM PDT 7:39 PM PDT
Civil Twilight 5:49 AM PDT 8:06 PM PDT
Nautical Twilight 5:16 AM PDT 8:39 PM PDT
Astronomical Twilight 4:41 AM PDT 9:14 PM PDT
Moon 7:53 PM PDT (8/21) 7:00 AM PDT (8/21)
Length of Visible Light 14h 17m
Length of Day
13h 23m
Full, 99% of the Moon is Illuminated
Aug 21
Full
Aug 28
Last Quarter
Sep 5
New
Sep 12
First Quarter
Sep 19
Full

Hourly Weather History & Observations

Time (PDT) Temp. Windchill Dew Point Humidity Pressure Visibility Wind Dir Wind Speed Gust Speed Precip Events Conditions
12:15 AM 51.8 °F - 44.6 °F 76% 30.31 in 10.0 mi West 8.1 mph - N/A   Clear
12:35 AM 50.0 °F - 44.6 °F 82% 30.31 in 10.0 mi Calm Calm - N/A   Scattered Clouds
12:55 AM 48.2 °F - 44.6 °F 87% 30.31 in 10.0 mi WNW 4.6 mph - N/A   Clear
1:15 AM 50.0 °F - 44.6 °F 82% 30.31 in 10.0 mi WNW 5.8 mph - N/A   Clear
1:35 AM 50.0 °F - 44.6 °F 82% 30.31 in 10.0 mi WNW 4.6 mph - N/A   Clear
1:55 AM 48.2 °F - 44.6 °F 87% 30.31 in 10.0 mi WNW 3.5 mph - N/A   Clear
2:15 AM 50.0 °F - 44.6 °F 82% 30.31 in 10.0 mi Calm Calm - N/A   Scattered Clouds
2:35 AM 51.8 °F - 44.6 °F 76% 30.31 in 10.0 mi West 6.9 mph - N/A   Scattered Clouds
2:55 AM 50.0 °F - 44.6 °F 82% 30.31 in 10.0 mi West 6.9 mph - N/A   Mostly Cloudy
3:15 AM 50.0 °F - 44.6 °F 82% 30.30 in 10.0 mi NNW 3.5 mph - N/A   Mostly Cloudy
3:35 AM 50.0 °F - 44.6 °F 82% 30.30 in 10.0 mi NW 3.5 mph - N/A   Overcast
3:55 AM 50.0 °F - 44.6 °F 82% 30.30 in 10.0 mi NW 4.6 mph - N/A   Overcast
4:15 AM 50.0 °F - 44.6 °F 82% 30.30 in 10.0 mi NW 4.6 mph - N/A   Mostly Cloudy
4:35 AM 50.0 °F - 44.6 °F 82% 30.30 in 10.0 mi WNW 3.5 mph - N/A   Scattered Clouds
4:55 AM 50.0 °F - 44.6 °F 82% 30.30 in 10.0 mi Calm Calm - N/A   Mostly Cloudy
5:15 AM 51.8 °F - 44.6 °F 76% 30.30 in 10.0 mi Calm Calm - N/A   Overcast
5:35 AM 50.0 °F - 44.6 °F 82% 30.30 in 10.0 mi West 6.9 mph - N/A   Overcast
5:55 AM 50.0 °F - 44.6 °F 82% 30.30 in 10.0 mi West 5.8 mph - N/A   Overcast
6:15 AM 50.0 °F - 44.6 °F 82% 30.31 in 10.0 mi ESE 5.8 mph - N/A   Overcast
6:35 AM 50.0 °F - 46.4 °F 87% 30.31 in 10.0 mi Calm Calm - N/A   Overcast
6:55 AM 48.2 °F - 46.4 °F 93% 30.31 in 10.0 mi NNE 3.5 mph - N/A   Overcast
7:15 AM 50.0 °F - 46.4 °F 87% 30.31 in 10.0 mi NNW 3.5 mph - N/A   Mostly Cloudy
7:35 AM 53.6 °F - 48.2 °F 82% 30.31 in 10.0 mi Calm Calm - N/A   Clear
7:55 AM 55.4 °F - 48.2 °F 77% 30.31 in 10.0 mi Calm Calm - N/A   Clear
8:15 AM 57.2 °F - 46.4 °F 67% 30.32 in 10.0 mi Calm Calm - N/A   Clear
8:35 AM 60.8 °F - 46.4 °F 59% 30.31 in 10.0 mi Calm Calm - N/A   Clear
8:55 AM 62.6 °F - 48.2 °F 59% 30.30 in 10.0 mi Calm Calm - N/A   Clear
9:15 AM 64.4 °F - 51.8 °F 64% 30.31 in 10.0 mi ESE 4.6 mph - N/A   Mostly Cloudy
9:35 AM 62.6 °F - 50.0 °F 63% 30.31 in 10.0 mi SE 3.5 mph - N/A   Overcast
9:55 AM 62.6 °F - 50.0 °F 63% 30.32 in 10.0 mi Calm Calm - N/A Rain Light Rain
10:15 AM 64.4 °F - 50.0 °F 59% 30.32 in 10.0 mi Calm Calm - N/A   Overcast
10:35 AM 66.2 °F - 48.2 °F 52% 30.31 in 10.0 mi Calm Calm - N/A   Overcast
10:55 AM 69.8 °F - 46.4 °F 43% 30.31 in 10.0 mi West 5.8 mph - N/A   Overcast
11:15 AM 68.0 °F - 48.2 °F 49% 30.32 in 10.0 mi West 8.1 mph - N/A   Overcast
11:35 AM 69.8 °F - 46.4 °F 43% 30.31 in 10.0 mi WNW 4.6 mph - N/A   Mostly Cloudy
11:55 AM 66.2 °F - 50.0 °F 56% 30.32 in 0.8 mi WSW 4.6 mph - 0.02 in Rain Heavy Rain
12:15 PM 66.2 °F - 50.0 °F 56% 30.30 in 10.0 mi Calm Calm - N/A Rain Light Rain
12:35 PM 68.0 °F - 46.4 °F 46% 30.29 in 10.0 mi Calm Calm - N/A   Scattered Clouds
12:55 PM 68.0 °F - 48.2 °F 49% 30.30 in 10.0 mi ENE 4.6 mph - N/A Rain Light Rain
1:15 PM 71.6 °F - 46.4 °F 41% 30.29 in 10.0 mi ESE 12.7 mph 19.6 mph N/A   Mostly Cloudy
1:35 PM 71.6 °F - 46.4 °F 41% 30.28 in 10.0 mi East 10.4 mph - N/A   Mostly Cloudy
1:55 PM 71.6 °F - 44.6 °F 38% 30.28 in 10.0 mi ESE 8.1 mph - N/A Rain Light Rain
2:15 PM 69.8 °F - 44.6 °F 40% 30.28 in 10.0 mi ESE 9.2 mph - N/A   Overcast
2:35 PM 77.0 °F - 44.6 °F 32% 30.27 in 10.0 mi East 15.0 mph - N/A   Mostly Cloudy
2:55 PM 71.6 °F - 42.8 °F 35% 30.26 in 10.0 mi ESE 8.1 mph 16.1 mph N/A   Scattered Clouds
3:15 PM 66.2 °F - 48.2 °F 52% 30.27 in 7.0 mi South 4.6 mph - 0.02 in Rain Light Rain
3:35 PM 68.0 °F - 50.0 °F 52% 30.26 in 10.0 mi Calm Calm - 0.02 in Rain Light Rain
3:55 PM 66.2 °F - 42.8 °F 43% 30.26 in 10.0 mi ESE 9.2 mph 18.4 mph 0.02 in   Overcast
4:15 PM 68.0 °F - 42.8 °F 40% 30.25 in 10.0 mi Calm Calm - N/A   Mostly Cloudy
4:35 PM 69.8 °F - 41.0 °F 35% 30.26 in 10.0 mi NNW 4.6 mph - N/A   Mostly Cloudy
4:55 PM 66.2 °F - 48.2 °F 52% 30.27 in 10.0 mi North 9.2 mph - N/A   Overcast
5:15 PM 66.2 °F - 46.4 °F 49% 30.26 in 10.0 mi North 6.9 mph - N/A   Mostly Cloudy
5:35 PM 62.6 °F - 48.2 °F 59% 30.27 in 10.0 mi ESE 10.4 mph - 0.01 in Rain Light Rain
5:55 PM 57.2 °F - 51.8 °F 82% 30.25 in 7.0 mi SW 3.5 mph - 0.03 in Rain Light Rain
6:15 PM 60.8 °F - 51.8 °F 72% 30.25 in 10.0 mi North 4.6 mph - N/A   Overcast
6:35 PM 60.8 °F - 53.6 °F 77% 30.25 in 10.0 mi North 3.5 mph - N/A   Overcast
6:55 PM 62.6 °F - 50.0 °F 63% 30.24 in 10.0 mi NNW 3.5 mph - N/A Rain Light Rain
7:15 PM 62.6 °F - 51.8 °F 68% 30.25 in 10.0 mi East 5.8 mph - N/A   Scattered Clouds
7:35 PM 59.0 °F - 48.2 °F 67% 30.25 in 10.0 mi Calm Calm - N/A   Scattered Clouds
7:55 PM 59.0 °F - 51.8 °F 77% 30.26 in 10.0 mi Calm Calm - N/A   Mostly Cloudy
8:15 PM 57.2 °F - 51.8 °F 82% 30.26 in 10.0 mi SW 3.5 mph - N/A   Scattered Clouds
8:35 PM 55.4 °F - 50.0 °F 82% 30.27 in 10.0 mi NNW 3.5 mph - N/A   Clear
8:55 PM 53.6 °F - 50.0 °F 88% 30.28 in 10.0 mi Calm Calm - N/A   Clear
9:15 PM 53.6 °F - 50.0 °F 88% 30.28 in 10.0 mi Calm Calm - N/A   Clear
9:35 PM 51.8 °F - 48.2 °F 88% 30.29 in 10.0 mi WNW 3.5 mph - N/A   Clear
9:55 PM 51.8 °F - 48.2 °F 88% 30.29 in 10.0 mi NW 3.5 mph - N/A   Clear
10:15 PM 50.0 °F - 46.4 °F 87% 30.29 in 10.0 mi Calm Calm - N/A   Clear
10:35 PM 51.8 °F - 48.2 °F 88% 30.30 in 10.0 mi Calm Calm - N/A   Clear
10:55 PM 51.8 °F - 48.2 °F 88% 30.29 in 10.0 mi Calm Calm - N/A   Scattered Clouds
11:15 PM 48.2 °F - 46.4 °F 93% 30.29 in 10.0 mi Calm Calm - N/A   Clear
11:35 PM 46.4 °F 45.2 °F 44.6 °F 93% 30.29 in 10.0 mi North 3.5 mph - N/A   Clear
11:55 PM 46.4 °F 45.2 °F 42.8 °F 87% 30.29 in 10.0 mi North 3.5 mph - N/A   Clear